Location: *
(46.1006°N, 1.8394°E)
Time: 03:40:26
(UTC+00:00)

SL-8 Rocket - Pass Details

Date: 20 September 2019
Orbit: 956 x 991 km, 82.9° (Epoch: 16 October)

Event Time Altitude Azimuth Distance (km) Brightness Sun altitude
Rises 19:47:31 0° 350° (N) 3,668 7.5 -19.8°
Reaches altitude 10° 19:50:02 10° 350° (N) 2,713 6.8 -20.2°
Maximum altitude 19:56:15 84° 264° (W) 972 4.0 -21.2°
Enters shadow 20:01:20 16° 177° (S) 2,287 5.7 -21.9°
